Ord, NE

11:16 PM CDT on September 30, 2016 (GMT -0500)
Sharp

Weather History for KODX - October, 2012

Change the Weather History Date:

Thursday, October 4, 2012

  Actual Average Record
Temperature  
Mean Temperature 40 °F 55 °F  
Max Temperature 54 °F 69 °F 91 °F (2011)
Min Temperature 25 °F 40 °F 25 °F (2012)
Degree Days  
Heating Degree Days 25 11  
Month to date heating degree days 51 41  
Since 1 July heating degree days 193 178  
Cooling Degree Days 0 1  
Month to date cooling degree days 0 4  
Year to date cooling degree days 1220 842  
Moisture  
Dew Point 30 °F    
Average Humidity 57    
Maximum Humidity 78    
Minimum Humidity 35    
Precipitation  
Precipitation 0.00 in 0.08 in 1.59 in (2002)
Month to date precipitation 0.01 0.31  
Year to date precipitation 11.06 21.66  
Sea Level Pressure  
Sea Level Pressure 30.27 in    
Wind  
Wind Speed 14 mph (NNW)    
Max Wind Speed 30 mph    
Max Gust Speed 38 mph    
Visibility 10 miles    
Events      
T = Trace of Precipitation, MM = Missing Value Source: NWS Daily Summary

Daily Weather History Graph

Daily Weather History Graph

Search for Another Location

Airport or City:

Trip Planner

Search our weather history database for the weather conditions in past years. The results will help you decide how hot, cold, wet, or windy it might be!

Date:

Astronomy

Oct. 04, 2012 Rise Set
Actual Time 7:36 AM CDT 7:11 PM CDT
Civil Twilight 7:08 AM CDT 7:39 PM CDT
Nautical Twilight 6:36 AM CDT 8:11 PM CDT
Astronomical Twilight 6:04 AM CDT 8:43 PM CDT
Moon 9:44 PM CDT (10/4) 11:58 AM CDT (10/4)
Length of Visible Light 12h 30m
Length of Day
11h 35m
Waning Gibbous, 82% of the Moon is Illuminated
Oct 4
Waning Gibbous
Oct 8
Last Quarter
Oct 15
New
Oct 21
First Quarter
Oct 29
Full

Hourly Weather History & Observations

Time (CDT) Temp. Windchill Dew Point Humidity Pressure Visibility Wind Dir Wind Speed Gust Speed Precip Events Conditions
12:53 AM 46.0 °F 38.3 °F 37.0 °F 71% 30.13 in 10.0 mi NW 20.7 mph - N/A   Overcast
1:26 AM 44.6 °F 37.2 °F 35.6 °F 71% 30.13 in 10.0 mi NNW 17.3 mph 24.2 mph N/A   Scattered Clouds
1:46 AM 44.6 °F 36.6 °F 35.6 °F 71% 30.13 in 10.0 mi NNW 19.6 mph 28.8 mph N/A   Mostly Cloudy
1:53 AM 44.1 °F 35.0 °F 35.1 °F 71% 30.13 in 10.0 mi NNW 24.2 mph 32.2 mph N/A   Mostly Cloudy
2:00 AM 44.6 °F 36.1 °F 33.8 °F 66% 30.16 in 10.0 mi NW 21.9 mph 32.2 mph N/A   Scattered Clouds
2:44 AM 42.8 °F 33.5 °F 33.8 °F 70% 30.15 in 10.0 mi NNW 23.0 mph 29.9 mph N/A   Mostly Cloudy
2:53 AM 43.0 °F 34.8 °F 33.1 °F 68% 30.13 in 10.0 mi NNW 18.4 mph 29.9 mph N/A   Scattered Clouds
3:53 AM 41.0 °F 33.1 °F 33.1 °F 73% 30.16 in 10.0 mi NW 15.0 mph 28.8 mph N/A   Clear
4:53 AM 41.0 °F 32.2 °F 32.0 °F 70% 30.17 in 10.0 mi NNW 18.4 mph 26.5 mph N/A   Partly Cloudy
5:53 AM 41.0 °F 31.9 °F 30.9 °F 67% 30.21 in 10.0 mi NNW 19.6 mph 27.6 mph N/A   Clear
6:53 AM 39.0 °F 29.3 °F 30.9 °F 73% 30.25 in 10.0 mi NNW 19.6 mph 23.0 mph N/A   Clear
7:53 AM 39.0 °F 29.6 °F 30.9 °F 73% 30.27 in 10.0 mi NNW 18.4 mph 27.6 mph N/A   Scattered Clouds
8:01 AM 39.2 °F 30.5 °F 30.2 °F 70% 30.25 in 10.0 mi NNW 16.1 mph 28.8 mph N/A   Mostly Cloudy
8:34 AM 39.2 °F 28.5 °F 30.2 °F 70% 30.27 in 10.0 mi NNW 24.2 mph 38.0 mph N/A   Scattered Clouds
8:53 AM 41.0 °F 31.1 °F 30.0 °F 65% 30.30 in 10.0 mi NNW 23.0 mph 32.2 mph N/A   Scattered Clouds
9:53 AM 44.1 °F 35.4 °F 28.9 °F 55% 30.31 in 10.0 mi NNW 21.9 mph 27.6 mph N/A   Clear
10:53 AM 46.9 °F - 28.9 °F 50% 30.33 in 10.0 mi NNW 20.7 mph 28.8 mph N/A   Scattered Clouds
11:53 AM 48.0 °F - 28.9 °F 48% 30.35 in 10.0 mi North 18.4 mph 28.8 mph N/A   Scattered Clouds
12:53 PM 50.0 °F - 28.9 °F 44% 30.35 in 10.0 mi North 16.1 mph 26.5 mph N/A   Scattered Clouds
1:53 PM 51.1 °F - 28.0 °F 41% 30.33 in 10.0 mi NNW 15.0 mph 20.7 mph N/A   Partly Cloudy
2:53 PM 52.0 °F - 27.0 °F 38% 30.31 in 10.0 mi NNW 13.8 mph 20.7 mph N/A   Clear
3:53 PM 54.0 °F - 27.0 °F 35% 30.31 in 10.0 mi North 13.8 mph - N/A   Clear
4:53 PM 53.1 °F - 27.0 °F 37% 30.30 in 10.0 mi North 13.8 mph 21.9 mph N/A   Clear
5:53 PM 50.0 °F - 27.0 °F 41% 30.31 in 10.0 mi North 11.5 mph - N/A   Clear
6:53 PM 46.9 °F - 27.0 °F 46% 30.32 in 10.0 mi North 6.9 mph - N/A   Clear
7:53 PM 43.0 °F 38.8 °F 27.0 °F 53% 30.34 in 10.0 mi North 6.9 mph - N/A   Clear
8:53 PM 36.0 °F 31.1 °F 25.0 °F 64% 30.38 in 10.0 mi NW 5.8 mph - N/A   Clear
9:53 PM 33.1 °F 27.7 °F 24.1 °F 70% 30.40 in 10.0 mi WNW 5.8 mph - N/A   Clear
10:53 PM 30.9 °F 27.5 °F 24.1 °F 76% 30.40 in 10.0 mi WNW 3.5 mph - N/A   Clear
11:53 PM 30.0 °F 26.5 °F 24.1 °F 79% 30.40 in 10.0 mi NNW 3.5 mph - N/A   Clear